• Join FlightAware (Why Join?)
  • Login
  • US Flag 
10:16AM EDT


 

Airport Tracker/Info


-or-


 

Live Flight TrackerFlight Track Log ✈ N27XP ✈ 28-Feb-2014 ✈ KGMU - KSOP

Flight Track Log - Related Links

Times and Time Zones

All times are in EST time to prevent confusion due to time zone crossing. See the N27XP flight status page for this flight to view local times or setup timezone preferences in your user account.

Time Position Orientation Groundspeed Altitude Reporting Facility
EST Latitude Longitude Course Direction KTS MPH feet Rate Location/Type
05:07PM 34.9161 -82.2250 73° East 281 323 7,700  Level Atlanta Center
05:08PM 34.9275 -82.1386 81° East 291 335 10,000 2,220 Climbing Atlanta Center
05:09PM 34.9319 -82.0272 87° East 304 350 12,200 2,100 Climbing Atlanta Center
05:10PM 34.9403 -81.9078 85° East 329 379 14,300 2,160 Climbing Atlanta Center
05:11PM 34.9525 -81.7758 84° East 364 419 16,600 1,320 Climbing Atlanta Center
05:12PM 34.9671 -81.8318 73° East  Level FlightAware Approximate
05:12PM 34.9731 -81.6511 79° East 377 434 17,000  Level Atlanta Center
05:13PM 34.9808 -81.5164 86° East 387 445 17,100 720 Climbing Atlanta Center
05:14PM 34.9950 -81.3892 82° East 387 445 18,500 900 Climbing Atlanta Center
05:15PM 35.0108 -81.2594 81° East 387 445 19,000 240 Climbing Atlanta Center
05:16PM 35.0222 -81.1272 84° East 387 445 19,000  Level Atlanta Center
05:17PM 35.0336 -80.9897 84° East 392 451 19,000  Level Atlanta Center
05:18PM 35.0422 -80.9208 81° East 423 487 19,000 -840 Level Atlanta Center
05:18PM 35.0503 -80.8292 84° East 412 474 18,200 -1,260 Descending Atlanta Center
05:19PM 35.0603 -80.7300 83° East 436 502 17,400 -1,320 Descending Atlanta Center
05:19PM 35.0633 -80.6867 85° East 422 486 16,900 -1,500 Descending Atlanta Center
05:20PM 35.0731 -80.5925 83° East 415 478 15,900 -1,500 Descending Atlanta Center
05:20PM 35.0761 -80.5467 85° East 422 486 15,400 -1,800 Descending Atlanta Center
05:21PM 35.0858 -80.4472 83° East 408 470 14,100 -1,800 Descending Atlanta Center
05:21PM 35.0867 -80.4117 88° East 417 480 13,600 -1,800 Descending Atlanta Center
05:22PM 35.0964 -80.3122 83° East 391 450 12,300 -1,740 Descending Atlanta Center
05:22PM 35.0994 -80.2817 83° East 402 463 11,900 -1,740 Descending Atlanta Center
05:23PM 35.1083 -80.1669 85° East 368 423 10,100 -1,320 Descending Atlanta Center
05:25PM 35.1169 -80.0628 84° East 317 365 9,300 -540 Descending Washington Center
05:26PM 35.1264 -79.9478 84° East 316 364 9,000 -120 Descending Washington Center
05:27PM 35.1378 -79.7339 86° East 323 372 9,000  Level Atlanta Center